Vancouver, WA
on Saturday, November 3, 2012

Saturday
Previous Day Next Day
Daily Summary
 ActualAverageRecord
Temperature
Mean Temperature °F 49°F  
Max Temperature 63°F 57°F 72°F (2010)
Min Temperature 53°F 42°F 17°F (1935)
Degree Days
Heating Degree Days 7    
Month to date heating degree days 25  
Since 1 July heating degree days 344  
Cooling Degree Days 0    
Month to date cooling degree days 0  
Year to date cooling degree days 398  
Growing Degree Days8 (Base °F )  
Moisture
Dew Point 53°F   
Average Humidity 83    
Maximum Humidity 93    
Minimum Humidity 72    
Precipitation
Precipitation 0.12 in 0.16 in 1.53 in (1944)
Month to date precipitation 0.38 0.48  
Year to date precipitation 31.54 26.94  
Snow
Snow 0.00 in in in ()
Month to date snowfall 0.0  
Snow Depth 0.00 in   
Wind
Wind Speed 4 mph   
Max Wind Speed 9 mph   
Max Gust Speed 14 mph   
Visibility 8 miles   
Events Rain   

Key: T is trace of precipitation, MM is missing value
Source: NWS Daily Summary
Time(PDT)TemperatureDew PointHumidity Pressure Visibility Wind DirectionWind SpeedGust SpeedPrecipitationEvents Conditions
12:53 AM 55.0°F 51.1°F 86% 30.01 in 10.0 miles SE 4.6 mph - 0.00 in Rain Light Rain
1:32 AM 53.6°F 51.8°F 94% 30.01 in 8.0 miles SE 3.5 mph - 0.00 in Rain Light Rain
1:39 AM 53.6°F 51.8°F 94% 30.01 in 8.0 miles ESE 5.8 mph - 0.00 in Rain Light Rain
1:53 AM 54.0°F 51.1°F 90% 30.01 in 6.0 miles ESE 6.9 mph - 0.01 in Rain Light Rain
2:03 AM 53.6°F 51.8°F 94% 30.01 in 4.0 miles ESE 5.8 mph - 0.01 in Rain Light Rain
2:53 AM 54.0°F 52.0°F 93% 30.02 in 3.0 miles ESE 8.1 mph - 0.05 in Rain Rain
3:00 AM 53.6°F 51.8°F 94% 30.02 in 5.0 miles ESE 6.9 mph - 0.00 in Rain Light Rain
3:16 AM 53.6°F 51.8°F 94% 30.02 in 4.0 miles ESE 6.9 mph - 0.00 in Rain Light Rain
3:53 AM 54.0°F 52.0°F 93% 30.02 in 3.0 miles ESE 6.9 mph - 0.00 in Rain Light Rain
4:25 AM 53.6°F 51.8°F 94% 30.02 in 3.0 miles ESE 5.8 mph - 0.02 in Rain Light Rain
4:53 AM 53.1°F 52.0°F 96% 30.04 in 3.0 miles ESE 8.1 mph - 0.03 in Rain Light Rain
5:06 AM 53.6°F 51.8°F 94% 30.04 in 3.0 miles ESE 5.8 mph - 0.00 in Rain Light Rain
5:11 AM 53.6°F 51.8°F 94% 30.04 in 3.0 miles SE 4.6 mph - 0.01 in Rain Light Rain
5:53 AM 54.0°F 52.0°F 93% 30.04 in 4.0 miles SE 4.6 mph - 0.03 in Rain Light Rain
6:43 AM 53.6°F 51.8°F 94% 30.04 in 10.0 miles ESE 4.6 mph - 0.00 in   Overcast
6:53 AM 54.0°F 53.1°F 97% 30.04 in 10.0 miles ESE 4.6 mph - 0.00 in   Overcast
7:29 AM 55.4°F 53.6°F 94% 30.05 in 10.0 miles ESE 3.5 mph - N/A   Overcast
7:53 AM 55.9°F 53.1°F 90% 30.06 in 10.0 miles Calm Calm - N/A   Overcast
8:53 AM 57.0°F 53.1°F 87% 30.07 in 10.0 miles East 6.9 mph - N/A   Overcast
9:53 AM 57.0°F 53.1°F 87% 30.09 in 10.0 miles ESE 8.1 mph - N/A   Overcast
10:04 AM 57.2°F 53.6°F 88% 30.09 in 10.0 miles ESE 6.9 mph - N/A   Overcast
10:53 AM 57.9°F 54.0°F 87% 30.11 in 10.0 miles Calm Calm - N/A   Overcast
11:53 AM 59.0°F 54.0°F 83% 30.13 in 10.0 miles Calm Calm - N/A   Overcast
12:18 PM 59.0°F 55.4°F 88% 30.12 in 10.0 miles ESE 3.5 mph - N/A   Overcast
12:53 PM 60.1°F 55.0°F 83% 30.12 in 10.0 miles SE 5.8 mph - N/A   Overcast
1:53 PM 62.1°F 55.0°F 78% 30.12 in 10.0 miles South 4.6 mph - N/A   Overcast
2:11 PM 62.6°F 55.4°F 77% 30.12 in 10.0 miles Variable 4.6 mph - N/A   Overcast
2:21 PM 62.6°F 55.4°F 77% 30.13 in 10.0 miles Calm Calm - N/A   Overcast
2:34 PM 62.6°F 53.6°F 72% 30.13 in 10.0 miles South 6.9 mph - N/A   Overcast
2:53 PM 63.0°F 54.0°F 72% 30.13 in 10.0 miles SSW 4.6 mph - N/A   Overcast
3:53 PM 63.0°F 54.0°F 72% 30.15 in 10.0 miles SSW 4.6 mph - N/A   Overcast
4:53 PM 63.0°F 54.0°F 72% 30.15 in 10.0 miles Variable 3.5 mph - N/A   Overcast
5:53 PM 62.1°F 54.0°F 75% 30.16 in 10.0 miles South 3.5 mph - N/A   Overcast
6:53 PM 61.0°F 54.0°F 78% 30.17 in 10.0 miles Calm Calm - 0.00 in   Overcast
7:53 PM 60.1°F 55.0°F 83% 30.17 in 10.0 miles Calm Calm - N/A   Overcast
8:53 PM 60.1°F 55.0°F 83% 30.16 in 10.0 miles SE 3.5 mph - N/A   Overcast
9:53 PM 59.0°F 55.0°F 87% 30.17 in 10.0 miles Calm Calm - N/A   Overcast
10:53 PM 59.0°F 55.9°F 90% 30.17 in 10.0 miles ESE 3.5 mph - N/A   Overcast
11:53 PM 57.9°F 55.0°F 90% 30.18 in 10.0 miles Calm Calm - N/A   Overcast
Moon Phase
Nov. 03 Nov. 06 Nov. 13 Nov. 20 Nov. 28
Sunrise:07:53 AM (PDT) Moon Rise:09:35 PM (PDT)11/3
Sunset:05:53 PM (PDT) Moon Set:12:07 PM (PDT)11/3

Copyright © 2014 The Weather Underground, Inc.